,,,PA_Meas_PMT16A,,PR_Meas_QMR101_102,,RH_Meas_QMH101,,SR_Meas_QMS101,,TA_Meas_QMH101,,GenWind,,GenWind,
date,time,status,PA,status,PR,status,RH,status,SR,status,TA,status,DirAvg,status,SpdAvg,
2008-04-20, 00:00:04,VALID,1002.17,VALID,0,VALID,96.9707,VALID,0,VALID,24.0734,VALID,352,VALID,0,
2008-04-20, 00:01:04,VALID,1002.17,VALID,0,VALID,96.9783,VALID,0.100563,VALID,24.0947,VALID,352,VALID,0,
2008-04-20, 00:02:04,VALID,1002.16,VALID,0,VALID,96.9707,VALID,0,VALID,24.0557,VALID,352,VALID,0.379297,
2008-04-20, 00:03:04,VALID,1002.18,VALID,0,VALID,96.9783,VALID,0,VALID,24.0752,VALID,352,VALID,0.366406,
2008-04-20, 00:04:04,VALID,1002.17,VALID,0,VALID,96.9936,VALID,0,VALID,24.0752,VALID,352,VALID,0,
2008-04-20, 00:05:04,VALID,1002.17,VALID,0,VALID,96.986,VALID,0,VALID,24.0752,VALID,352,VALID,0.0402344,
2008-04-20, 00:06:04,VALID,1002.18,VALID,0,VALID,96.9707,VALID,0.100563,VALID,24.0557,VALID,352,VALID,0.0667969,
2008-04-20, 00:07:04,VALID,1002.2,VALID,0,VALID,96.9631,VALID,0,VALID,24.0557,VALID,352,VALID,0.163281,
2008-04-20, 00:08:04,VALID,1002.2,VALID,0,VALID,96.9707,VALID,0,VALID,24.0557,VALID,353,VALID,0,
2008-04-20, 00:09:04,VALID,1002.2,VALID,0,VALID,96.9783,VALID,0.100563,VALID,24.0557,VALID,352,VALID,0,
2008-04-20, 00:10:04,VALID,1002.17,VALID,0,VALID,96.9631,VALID,0.100563,VALID,24.0557,VALID,353,VALID,0.599219,
2008-04-20, 00:11:04,VALID,1002.16,VALID,0,VALID,96.9783,VALID,0.100563,VALID,23.9955,VALID,352,VALID,0.494531,
2008-04-20, 00:12:04,VALID,1002.15,VALID,0,VALID,96.9707,VALID,0.100563,VALID,23.9761,VALID,353,VALID,0.470313,
2008-04-20, 00:13:04,VALID,1002.14,VALID,0,VALID,96.9707,VALID,0.100563,VALID,23.9779,VALID,353,VALID,0.571094,
2008-04-20, 00:14:04,VALID,1002.18,VALID,0,VALID,96.9707,VALID,0.100563,VALID,23.9371,VALID,340,VALID,0.680859,
2008-04-20, 00:15:04,VALID,1002.17,VALID,0,VALID,96.9707,VALID,0.100563,VALID,23.9566,VALID,343,VALID,0.575391,
2008-04-20, 00:16:04,VALID,1002.13,VALID,0,VALID,96.986,VALID,0.100563,VALID,23.9566,VALID,346,VALID,0.21875,
2008-04-20, 00:17:04,VALID,1002.18,VALID,0,VALID,97.0012,VALID,0.100563,VALID,23.9779,VALID,346,VALID,0,
2008-04-20, 00:18:04,VALID,1002.19,VALID,0,VALID,96.9936,VALID,0.100563,VALID,23.9566,VALID,346,VALID,0,
2008-04-20, 00:19:04,VALID,1002.16,VALID,0,VALID,97.0165,VALID,0.100563,VALID,23.9779,VALID,346,VALID,0,
2008-04-20, 00:20:04,VALID,1002.17,VALID,0,VALID,96.9936,VALID,0,VALID,23.9566,VALID,346,VALID,0,
2008-04-20, 00:21:04,VALID,1002.18,VALID,0,VALID,97.0088,VALID,0.100563,VALID,23.9761,VALID,301,VALID,0.409375,
2008-04-20, 00:22:04,VALID,1002.16,VALID,0,VALID,97.0165,VALID,0.100563,VALID,23.9742,VALID,312,VALID,0.255078,
2008-04-20, 00:23:04,VALID,1002.17,VALID,0,VALID,97.0165,VALID,0.100563,VALID,23.9955,VALID,338,VALID,0.241797,
2008-04-20, 00:24:04,VALID,1002.13,VALID,0,VALID,97.0241,VALID,0,VALID,24.015,VALID,338,VALID,0.0382813,
2008-04-20, 00:25:04,VALID,1002.1,VALID,0,VALID,96.9783,VALID,0.100563,VALID,24.0363,VALID,341,VALID,0.423438,
2008-04-20, 00:26:04,VALID,1002.09,VALID,0,VALID,96.9936,VALID,0.100563,VALID,23.9955,VALID,342,VALID,0.481641,
2008-04-20, 00:27:04,VALID,1002.07,VALID,0,VALID,97.0088,VALID,0.100563,VALID,23.9955,VALID,350,VALID,0.469531,
2008-04-20, 00:28:04,VALID,1002.07,VALID,0,VALID,97.0012,VALID,0.100563,VALID,24.0168,VALID,350,VALID,0.425,
2008-04-20, 00:29:04,VALID,1002.1,VALID,0,VALID,96.9936,VALID,0.100563,VALID,23.9761,VALID,351,VALID,0.464453,
2008-04-20, 00:30:04,VALID,1002.08,VALID,0,VALID,97.0088,VALID,0.100563,VALID,23.9955,VALID,352,VALID,0.266406,
2008-04-20, 00:31:04,VALID,1002.1,VALID,0,VALID,97.0165,VALID,0.100563,VALID,23.9761,VALID,352,VALID,0.510547,
2008-04-20, 00:32:04,VALID,1002.1,VALID,0,VALID,97.0165,VALID,0,VALID,24.0168,VALID,352,VALID,0.33125,
2008-04-20, 00:33:04,VALID,1002.06,VALID,0,VALID,97.0165,VALID,0.100563,VALID,24.0168,VALID,352,VALID,0.351563,
2008-04-20, 00:34:04,VALID,1002.08,VALID,0,VALID,97.0165,VALID,0.100563,VALID,24.0363,VALID,352,VALID,0.530078,
2008-04-20, 00:35:04,VALID,1002.08,VALID,0,VALID,97.0165,VALID,0.100563,VALID,24.015,VALID,352,VALID,0.439063,
2008-04-20, 00:36:04,VALID,1002.1,VALID,0,VALID,97.0012,VALID,0.100563,VALID,24.0363,VALID,352,VALID,0.510156,
2008-04-20, 00:37:04,VALID,1002.13,VALID,0,VALID,97.0241,VALID,0,VALID,24.0345,VALID,352,VALID,0.287891,
2008-04-20, 00:38:04,VALID,1002.09,VALID,0,VALID,97.0241,VALID,0.100563,VALID,24.0345,VALID,352,VALID,0.259375,
2008-04-20, 00:39:04,VALID,1002.11,VALID,0,VALID,97.0165,VALID,0.100563,VALID,24.0539,VALID,352,VALID,0.4125,
2008-04-20, 00:40:04,VALID,1002.12,VALID,0,VALID,97.0012,VALID,0.100563,VALID,24.0363,VALID,352,VALID,0.332422,
2008-04-20, 00:41:04,VALID,1002.08,VALID,0,VALID,97.0012,VALID,0.100563,VALID,24.0345,VALID,352,VALID,0.312891,
2008-04-20, 00:42:04,VALID,1002.07,VALID,0,VALID,97.0165,VALID,0.100563,VALID,24.0345,VALID,352,VALID,0.194141,
2008-04-20, 00:43:04,VALID,1002.02,VALID,0,VALID,96.9936,VALID,0.100563,VALID,24.0345,VALID,352,VALID,0.0882813,
2008-04-20, 00:44:04,VALID,1002,VALID,0,VALID,97.0012,VALID,0.100563,VALID,24.015,VALID,352,VALID,0.0808594,
2008-04-20, 00:45:04,VALID,1002,VALID,0,VALID,97.0165,VALID,0.100563,VALID,23.9973,VALID,352,VALID,0,
2008-04-20, 00:46:04,VALID,1001.97,VALID,0,VALID,97.0165,VALID,0.100563,VALID,23.9566,VALID,352,VALID,0.0535156,
2008-04-20, 00:47:04,VALID,1001.96,VALID,0,VALID,96.9936,VALID,0.100563,VALID,23.9584,VALID,352,VALID,0.297266,
2008-04-20, 00:48:04,VALID,1001.95,VALID,0,VALID,97.0241,VALID,0.100563,VALID,23.9761,VALID,352,VALID,0.497656,
2008-04-20, 00:49:04,VALID,1001.93,VALID,0,VALID,97.0165,VALID,0.100563,VALID,23.9955,VALID,351,VALID,0.575391,
2008-04-20, 00:50:04,VALID,1001.94,VALID,0,VALID,97.0546,VALID,0.100563,VALID,24.0345,VALID,350,VALID,0.640234,
2008-04-20, 00:51:04,VALID,1001.94,VALID,0,VALID,97.0241,VALID,0.100563,VALID,24.0734,VALID,352,VALID,0.361719,
2008-04-20, 00:52:04,VALID,1001.94,VALID,0,VALID,97.0241,VALID,0.100563,VALID,24.1123,VALID,352,VALID,0.361328,
2008-04-20, 00:53:04,VALID,1001.93,VALID,0,VALID,97.0241,VALID,0.100563,VALID,24.0929,VALID,352,VALID,0.165234,
2008-04-20, 00:54:04,VALID,1001.9,VALID,0,VALID,97.0165,VALID,0.100563,VALID,24.1123,VALID,352,VALID,0,
2008-04-20, 00:55:04,VALID,1001.89,VALID,0,VALID,97.0165,VALID,0.100563,VALID,24.1123,VALID,352,VALID,0,
2008-04-20, 00:56:04,VALID,1001.87,VALID,0,VALID,97.0088,VALID,0.100563,VALID,24.1318,VALID,352,VALID,0.0746094,
2008-04-20, 00:57:04,VALID,1001.86,VALID,0,VALID,97.0088,VALID,0.100563,VALID,24.1531,VALID,352,VALID,0.0792969,
2008-04-20, 00:58:04,VALID,1001.86,VALID,0,VALID,97.0165,VALID,0.100563,VALID,24.1318,VALID,352,VALID,0.152734,
2008-04-20, 00:59:04,VALID,1001.85,VALID,0,VALID,97.0088,VALID,0.100563,VALID,24.1513,VALID,352,VALID,0.242578,
2008-04-20, 01:00:04,VALID,1001.86,VALID,0,VALID,96.9936,VALID,0,VALID,24.1707,VALID,352,VALID,0.0679687,
2008-04-20, 01:01:04,VALID,1001.87,VALID,0,VALID,97.0088,VALID,0,VALID,24.1707,VALID,352,VALID,0.0195313,
2008-04-20, 01:02:04,VALID,1001.87,VALID,0,VALID,97.0012,VALID,0.100563,VALID,24.1707,VALID,352,VALID,0.0015625,
2008-04-20, 01:03:04,VALID,1001.86,VALID,0,VALID,97.0012,VALID,0.100563,VALID,24.1902,VALID,352,VALID,0,
2008-04-20, 01:04:04,VALID,1001.85,VALID,0,VALID,97.0012,VALID,0.100563,VALID,24.2097,VALID,293,VALID,0.373047,
2008-04-20, 01:05:04,VALID,1001.87,VALID,0,VALID,97.0012,VALID,0.100563,VALID,24.2097,VALID,292,VALID,0.174609,
2008-04-20, 01:06:04,VALID,1001.91,VALID,0,VALID,97.0088,VALID,0.100563,VALID,24.2504,VALID,311,VALID,0.63125,
2008-04-20, 01:07:04,VALID,1001.93,VALID,0,VALID,97.0088,VALID,0.100563,VALID,24.2699,VALID,281,VALID,0.241016,
2008-04-20, 01:08:04,VALID,1001.9,VALID,0,VALID,97.0012,VALID,0.100563,VALID,24.2681,VALID,285,VALID,0.132422,
2008-04-20, 01:09:04,VALID,1001.88,VALID,0,VALID,97.0088,VALID,0,VALID,24.2912,VALID,285,VALID,0.0964844,
2008-04-20, 01:10:04,VALID,1001.87,VALID,0,VALID,96.9936,VALID,0,VALID,24.2912,VALID,286,VALID,0.199609,
2008-04-20, 01:11:04,VALID,1001.88,VALID,0,VALID,96.986,VALID,0,VALID,24.3107,VALID,287,VALID,0.118359,
2008-04-20, 01:12:04,VALID,1001.87,VALID,0,VALID,96.986,VALID,0,VALID,24.3107,VALID,287,VALID,0.00664063,
2008-04-20, 01:13:04,VALID,1001.85,VALID,0,VALID,96.986,VALID,0,VALID,24.2894,VALID,288,VALID,0.373437,
2008-04-20, 01:14:04,VALID,1001.84,VALID,0,VALID,96.9707,VALID,0,VALID,24.2912,VALID,309,VALID,0.555859,
2008-04-20, 01:15:04,VALID,1001.8,VALID,0,VALID,97.0012,VALID,0,VALID,24.3107,VALID,297,VALID,0.521094,
2008-04-20, 01:16:04,VALID,1001.81,VALID,0,VALID,96.9707,VALID,0,VALID,24.3088,VALID,297,VALID,0.296484,
2008-04-20, 01:17:04,VALID,1001.82,VALID,0,VALID,96.9707,VALID,0,VALID,24.3088,VALID,294,VALID,0.169531,
2008-04-20, 01:18:04,VALID,1001.79,VALID,0,VALID,96.9707,VALID,0,VALID,24.3302,VALID,303,VALID,0.26875,
2008-04-20, 01:19:04,VALID,1001.77,VALID,0,VALID,96.9936,VALID,0,VALID,24.3302,VALID,302,VALID,0,
2008-04-20, 01:20:04,VALID,1001.77,VALID,0,VALID,96.9707,VALID,0,VALID,24.3302,VALID,330,VALID,0.272266,
2008-04-20, 01:21:04,VALID,1001.74,VALID,0,VALID,96.9707,VALID,0,VALID,24.3088,VALID,330,VALID,0,
2008-04-20, 01:22:04,VALID,1001.73,VALID,0,VALID,96.9631,VALID,0,VALID,24.3302,VALID,330,VALID,0,
2008-04-20, 01:23:04,VALID,1001.71,VALID,0,VALID,96.9478,VALID,0,VALID,24.2912,VALID,348,VALID,0.528906,
2008-04-20, 01:24:04,VALID,1001.68,VALID,0,VALID,96.9631,VALID,0,VALID,24.2894,VALID,355,VALID,0.605859,
2008-04-20, 01:25:04,VALID,1001.63,VALID,0,VALID,96.9554,VALID,0,VALID,24.2894,VALID,355,VALID,0.413281,
2008-04-20, 01:26:04,VALID,1001.61,VALID,0,VALID,96.9631,VALID,0,VALID,24.2699,VALID,352,VALID,0.608203,
2008-04-20, 01:27:04,VALID,1001.62,VALID,0,VALID,96.9707,VALID,0.100563,VALID,24.2486,VALID,353,VALID,0.457422,
2008-04-20, 01:28:04,VALID,1001.61,VALID,0,VALID,96.9707,VALID,0,VALID,24.2504,VALID,353,VALID,0.424609,
2008-04-20, 01:29:04,VALID,1001.61,VALID,0,VALID,96.9783,VALID,0,VALID,24.2504,VALID,353,VALID,0.467578,
2008-04-20, 01:30:04,VALID,1001.58,VALID,0,VALID,96.9554,VALID,0.100563,VALID,24.2504,VALID,345,VALID,0.333984,
2008-04-20, 01:31:04,VALID,1001.57,VALID,0,VALID,96.9707,VALID,0,VALID,24.2504,VALID,346,VALID,0.222656,
2008-04-20, 01:32:04,VALID,1001.56,VALID,0,VALID,96.9707,VALID,0,VALID,24.231,VALID,346,VALID,0.158984,
2008-04-20, 01:33:04,VALID,1001.55,VALID,0,VALID,96.9554,VALID,0.100563,VALID,24.231,VALID,346,VALID,0.261328,
2008-04-20, 01:34:04,VALID,1001.54,VALID,0,VALID,96.986,VALID,0,VALID,24.231,VALID,344,VALID,0.323828,
2008-04-20, 01:35:04,VALID,1001.51,VALID,0,VALID,96.9707,VALID,0,VALID,24.231,VALID,353,VALID,0.649219,
2008-04-20, 01:36:04,VALID,1001.51,VALID,0,VALID,96.9707,VALID,0,VALID,24.2291,VALID,353,VALID,0.360547,
2008-04-20, 01:37:04,VALID,1001.46,VALID,0,VALID,96.9707,VALID,0.100563,VALID,24.1902,VALID,355,VALID,0.358594,
2008-04-20, 01:38:04,VALID,1001.43,VALID,0,VALID,96.9631,VALID,0.100563,VALID,24.2097,VALID,359,VALID,0.691797,
2008-04-20, 01:39:04,VALID,1001.46,VALID,0,VALID,96.9631,VALID,0,VALID,24.2133,VALID,337,VALID,0.225,
2008-04-20, 01:40:04,VALID,1001.47,VALID,0,VALID,96.9707,VALID,0,VALID,24.2133,VALID,297,VALID,0.644531,
2008-04-20, 01:41:04,VALID,1001.45,VALID,0,VALID,96.986,VALID,0,VALID,24.192,VALID,294,VALID,0.848047,
2008-04-20, 01:42:04,VALID,1001.5,VALID,0,VALID,96.986,VALID,0,VALID,24.2115,VALID,269,VALID,0.273047,
2008-04-20, 01:43:04,VALID,1001.46,VALID,0,VALID,96.986,VALID,0,VALID,24.231,VALID,269,VALID,0.0480469,
2008-04-20, 01:44:04,VALID,1001.48,VALID,0,VALID,96.9783,VALID,0,VALID,24.2328,VALID,269,VALID,0.175391,
2008-04-20, 01:45:04,VALID,1001.48,VALID,0,VALID,96.9631,VALID,0,VALID,24.2115,VALID,269,VALID,0.00117188,
2008-04-20, 01:46:04,VALID,1001.46,VALID,0,VALID,96.9707,VALID,0,VALID,24.2133,VALID,271,VALID,0.525,
2008-04-20, 01:47:04,VALID,1001.44,VALID,0,VALID,96.9783,VALID,0,VALID,24.2523,VALID,356,VALID,0.421484,
2008-04-20, 01:48:04,VALID,1001.42,VALID,0,VALID,96.9631,VALID,0,VALID,24.2523,VALID,356,VALID,0.166016,
2008-04-20, 01:49:04,VALID,1001.45,VALID,0,VALID,96.9783,VALID,0,VALID,24.2328,VALID,290,VALID,0.695313,
2008-04-20, 01:50:04,VALID,1001.45,VALID,0,VALID,96.9631,VALID,0,VALID,24.231,VALID,286,VALID,0.215625,
2008-04-20, 01:51:04,VALID,1001.44,VALID,0,VALID,96.9631,VALID,0,VALID,24.2523,VALID,286,VALID,0.323828,
2008-04-20, 01:52:04,VALID,1001.46,VALID,0,VALID,96.9631,VALID,0,VALID,24.2523,VALID,290,VALID,0.200781,
2008-04-20, 01:53:04,VALID,1001.46,VALID,0,VALID,96.9707,VALID,0,VALID,24.192,VALID,290,VALID,0.167578,
2008-04-20, 01:54:04,VALID,1001.49,VALID,0,VALID,96.9554,VALID,0,VALID,24.2133,VALID,290,VALID,0.268359,
2008-04-20, 01:55:04,VALID,1001.51,VALID,0,VALID,96.9554,VALID,0,VALID,24.192,VALID,291,VALID,0.471484,
2008-04-20, 01:56:04,VALID,1001.56,VALID,0,VALID,96.9707,VALID,0,VALID,24.2133,VALID,294,VALID,0.232422,
2008-04-20, 01:57:04,VALID,1001.54,VALID,0,VALID,96.9631,VALID,0,VALID,24.1939,VALID,290,VALID,0.870313,
2008-04-20, 01:58:04,VALID,1001.57,VALID,0,VALID,96.986,VALID,0,VALID,24.1939,VALID,299,VALID,0.337109,
2008-04-20, 01:59:04,VALID,1001.58,VALID,0,VALID,96.9707,VALID,0,VALID,24.192,VALID,317,VALID,0.282031,
2008-04-20, 02:00:04,VALID,1001.57,VALID,0,VALID,96.9707,VALID,0,VALID,24.192,VALID,307,VALID,0.0886719,
2008-04-20, 02:01:04,VALID,1001.57,VALID,0,VALID,96.9554,VALID,0,VALID,24.1939,VALID,358,VALID,0.585156,
2008-04-20, 02:02:04,VALID,1001.57,VALID,0,VALID,96.9707,VALID,0,VALID,24.192,VALID,352,VALID,0.462109,
2008-04-20, 02:03:04,VALID,1001.57,VALID,0,VALID,96.9707,VALID,0,VALID,24.1939,VALID,339,VALID,0.701563,
2008-04-20, 02:04:04,VALID,1001.56,VALID,0,VALID,96.9554,VALID,0,VALID,24.1744,VALID,341,VALID,0.670313,
2008-04-20, 02:05:04,VALID,1001.56,VALID,0,VALID,96.9478,VALID,0,VALID,24.1744,VALID,353,VALID,0.715234,
2008-04-20, 02:06:04,VALID,1001.52,VALID,0,VALID,96.9478,VALID,0,VALID,24.1744,VALID,360,VALID,0.676953,
2008-04-20, 02:07:04,VALID,1001.52,VALID,0,VALID,96.9326,VALID,0,VALID,24.1531,VALID,360,VALID,0.471094,
2008-04-20, 02:08:04,VALID,1001.5,VALID,0,VALID,96.9402,VALID,0,VALID,24.1355,VALID,360,VALID,0.666016,
2008-04-20, 02:09:04,VALID,1001.44,VALID,0,VALID,96.9554,VALID,0,VALID,24.116,VALID,3,VALID,0.588281,
2008-04-20, 02:10:04,VALID,1001.46,VALID,0,VALID,96.9631,VALID,0,VALID,24.116,VALID,2,VALID,0.558594,
2008-04-20, 02:11:04,VALID,1001.44,VALID,0,VALID,96.9707,VALID,0,VALID,24.116,VALID,2,VALID,0.363281,
2008-04-20, 02:12:04,VALID,1001.39,VALID,0,VALID,96.9631,VALID,0,VALID,24.1373,VALID,2,VALID,0,
2008-04-20, 02:13:04,VALID,1001.35,VALID,0,VALID,96.9783,VALID,0,VALID,24.0965,VALID,2,VALID,0.620703,
2008-04-20, 02:14:04,VALID,1001.34,VALID,0,VALID,96.9631,VALID,0,VALID,24.116,VALID,2,VALID,0.167187,
2008-04-20, 02:15:04,VALID,1001.34,VALID,0,VALID,96.9631,VALID,0,VALID,24.116,VALID,1,VALID,0.0613281,
2008-04-20, 02:16:04,VALID,1001.34,VALID,0,VALID,96.9707,VALID,0,VALID,24.1142,VALID,291,VALID,0.680859,
2008-04-20, 02:17:04,VALID,1001.34,VALID,0,VALID,96.9783,VALID,0,VALID,24.1142,VALID,291,VALID,0,
2008-04-20, 02:18:04,VALID,1001.34,VALID,0,VALID,96.9707,VALID,0,VALID,24.1355,VALID,291,VALID,0.0269531,
2008-04-20, 02:19:04,VALID,1001.31,VALID,0,VALID,96.9631,VALID,0,VALID,24.1355,VALID,343,VALID,0.455859,
2008-04-20, 02:20:04,VALID,1001.29,VALID,0,VALID,96.9631,VALID,0,VALID,24.116,VALID,351,VALID,0.545313,
2008-04-20, 02:21:04,VALID,1001.31,VALID,0,VALID,96.9783,VALID,0,VALID,24.0947,VALID,352,VALID,0.464453,
2008-04-20, 02:22:04,VALID,1001.32,VALID,0,VALID,96.9936,VALID,0,VALID,24.0947,VALID,350,VALID,0.00703125,
2008-04-20, 02:23:04,VALID,1001.32,VALID,0,VALID,96.9783,VALID,0,VALID,24.116,VALID,350,VALID,0.217187,
2008-04-20, 02:24:04,VALID,1001.31,VALID,0,VALID,96.9631,VALID,0,VALID,24.0965,VALID,350,VALID,0.0871094,
2008-04-20, 02:25:04,VALID,1001.3,VALID,0,VALID,96.986,VALID,0,VALID,24.0752,VALID,352,VALID,0.186719,
2008-04-20, 02:26:04,VALID,1001.31,VALID,0,VALID,96.9707,VALID,0,VALID,24.0965,VALID,352,VALID,0.00117188,
2008-04-20, 02:27:04,VALID,1001.32,VALID,0,VALID,96.9631,VALID,0,VALID,24.077,VALID,302,VALID,0.815625,
2008-04-20, 02:28:04,VALID,1001.34,VALID,0,VALID,96.9783,VALID,0,VALID,24.0947,VALID,301,VALID,0.559766,
2008-04-20, 02:29:04,VALID,1001.33,VALID,0,VALID,96.986,VALID,0,VALID,24.1142,VALID,296,VALID,0.102734,
2008-04-20, 02:30:04,VALID,1001.28,VALID,0,VALID,96.9936,VALID,0,VALID,24.116,VALID,296,VALID,0.0574219,
2008-04-20, 02:31:04,VALID,1001.31,VALID,0,VALID,96.9631,VALID,0,VALID,24.0947,VALID,296,VALID,0.0539063,
2008-04-20, 02:32:04,VALID,1001.29,VALID,0,VALID,96.9707,VALID,0,VALID,24.077,VALID,297,VALID,0.119922,
2008-04-20, 02:33:04,VALID,1001.27,VALID,0,VALID,96.9707,VALID,0,VALID,24.077,VALID,297,VALID,0.0449219,
2008-04-20, 02:34:04,VALID,1001.27,VALID,0,VALID,96.9707,VALID,0,VALID,24.077,VALID,297,VALID,0.0078125,
2008-04-20, 02:35:04,VALID,1001.21,VALID,0,VALID,96.9554,VALID,0,VALID,24.0576,VALID,297,VALID,0.440234,
2008-04-20, 02:36:04,VALID,1001.23,VALID,0,VALID,96.9707,VALID,0,VALID,24.0576,VALID,297,VALID,0.219922,
2008-04-20, 02:37:04,VALID,1001.21,VALID,0,VALID,96.9707,VALID,0,VALID,24.0576,VALID,297,VALID,0.01875,
2008-04-20, 02:38:04,VALID,1001.16,VALID,0,VALID,96.9554,VALID,0,VALID,24.0381,VALID,297,VALID,0,
2008-04-20, 02:39:04,VALID,1001.15,VALID,0,VALID,96.9631,VALID,0,VALID,24.0168,VALID,297,VALID,0,
2008-04-20, 02:40:04,VALID,1001.14,VALID,0,VALID,96.9478,VALID,0.100563,VALID,23.9761,VALID,297,VALID,0,
2008-04-20, 02:41:04,VALID,1001.1,VALID,0,VALID,96.9783,VALID,0,VALID,23.9973,VALID,297,VALID,0.0316406,
2008-04-20, 02:42:04,VALID,1001.11,VALID,0,VALID,96.9707,VALID,0.100563,VALID,23.9779,VALID,297,VALID,0.278906,
2008-04-20, 02:43:04,VALID,1001.06,VALID,0,VALID,96.9478,VALID,0,VALID,23.9779,VALID,297,VALID,0,
2008-04-20, 02:44:04,VALID,1001.06,VALID,0,VALID,96.986,VALID,0.100563,VALID,23.9566,VALID,297,VALID,0.000390625,
2008-04-20, 02:45:04,VALID,1001.01,VALID,0,VALID,96.986,VALID,0,VALID,23.9584,VALID,298,VALID,0.201953,
2008-04-20, 02:46:04,VALID,1001,VALID,0,VALID,96.9936,VALID,0,VALID,23.9779,VALID,302,VALID,0.0535156,
2008-04-20, 02:47:04,VALID,1000.95,VALID,0,VALID,96.9783,VALID,0.100563,VALID,23.9371,VALID,302,VALID,0.133984,
2008-04-20, 02:48:04,VALID,1000.93,VALID,0,VALID,96.9707,VALID,0,VALID,23.9584,VALID,302,VALID,0,
2008-04-20, 02:49:04,VALID,1000.9,VALID,0,VALID,96.986,VALID,0.100563,VALID,23.9389,VALID,335,VALID,0.587891,
2008-04-20, 02:50:04,VALID,1000.87,VALID,0,VALID,96.9783,VALID,0.100563,VALID,23.8982,VALID,345,VALID,0.520312,
2008-04-20, 02:51:04,VALID,1000.86,VALID,0,VALID,96.9783,VALID,0,VALID,23.9195,VALID,347,VALID,0.486328,
2008-04-20, 02:52:04,VALID,1000.82,VALID,0,VALID,96.986,VALID,0,VALID,23.9195,VALID,351,VALID,0.263281,
2008-04-20, 02:53:04,VALID,1000.79,VALID,0,VALID,96.9783,VALID,0,VALID,23.9195,VALID,351,VALID,0,
2008-04-20, 02:54:04,VALID,1000.8,VALID,0,VALID,96.9631,VALID,0,VALID,23.9,VALID,351,VALID,0.00351562,
2008-04-20, 02:55:04,VALID,1000.79,VALID,0,VALID,96.9936,VALID,0.100563,VALID,23.8805,VALID,351,VALID,0.214062,
2008-04-20, 02:56:04,VALID,1000.71,VALID,0,VALID,97.0088,VALID,0,VALID,23.8416,VALID,354,VALID,0.750391,
2008-04-20, 02:57:04,VALID,1000.72,VALID,0,VALID,96.9936,VALID,0,VALID,23.8611,VALID,356,VALID,0.669531,
2008-04-20, 02:58:04,VALID,1000.71,VALID,0,VALID,97.0012,VALID,0,VALID,23.8611,VALID,357,VALID,0.738672,
2008-04-20, 02:59:04,VALID,1000.65,VALID,0,VALID,97.0012,VALID,0,VALID,23.8416,VALID,357,VALID,0.458203,
2008-04-20, 03:00:05,VALID,1000.64,VALID,0,VALID,97.0088,VALID,0,VALID,23.8416,VALID,357,VALID,0.315625,
2008-04-20, 03:01:05,VALID,1000.67,VALID,0,VALID,97.0088,VALID,0,VALID,23.8416,VALID,357,VALID,0.225,
2008-04-20, 03:02:05,VALID,1000.63,VALID,0,VALID,97.0088,VALID,0.100563,VALID,23.8416,VALID,353,VALID,0.835156,
2008-04-20, 03:03:05,VALID,1000.62,VALID,0,VALID,97.0241,VALID,0,VALID,23.8611,VALID,352,VALID,0.739453,
2008-04-20, 03:04:05,VALID,1000.61,VALID,0,VALID,97.0394,VALID,0,VALID,23.8805,VALID,348,VALID,0.546484,
2008-04-20, 03:05:05,VALID,1000.62,VALID,0,VALID,97.0241,VALID,0,VALID,23.8611,VALID,349,VALID,0,
2008-04-20, 03:06:05,VALID,1000.61,VALID,0,VALID,97.0241,VALID,0,VALID,23.8593,VALID,351,VALID,0.505078,
2008-04-20, 03:07:05,VALID,1000.6,VALID,0,VALID,97.0088,VALID,0,VALID,23.8805,VALID,360,VALID,0.209375,
2008-04-20, 03:08:05,VALID,1000.58,VALID,0,VALID,97.0088,VALID,0,VALID,23.8611,VALID,360,VALID,0.560938,
2008-04-20, 03:09:05,VALID,1000.56,VALID,0,VALID,97.0165,VALID,0,VALID,23.8416,VALID,360,VALID,0.526172,
2008-04-20, 03:10:05,VALID,1000.56,VALID,0,VALID,97.0088,VALID,0,VALID,23.7814,VALID,360,VALID,0.386719,
2008-04-20, 03:11:05,VALID,1000.54,VALID,0,VALID,97.0394,VALID,0.100563,VALID,23.8221,VALID,360,VALID,0.582031,
2008-04-20, 03:12:05,VALID,1000.52,VALID,0,VALID,97.047,VALID,0,VALID,23.8416,VALID,355,VALID,0.517187,
2008-04-20, 03:13:05,VALID,1000.51,VALID,0,VALID,97.047,VALID,0,VALID,23.8398,VALID,355,VALID,0.248437,
2008-04-20, 03:14:05,VALID,1000.5,VALID,0,VALID,97.0317,VALID,0.100563,VALID,23.8593,VALID,335,VALID,0.499609,
2008-04-20, 03:15:05,VALID,1000.51,VALID,0,VALID,97.0394,VALID,0.100563,VALID,23.8787,VALID,340,VALID,0.388281,
2008-04-20, 03:16:05,VALID,1000.49,VALID,0,VALID,97.0394,VALID,0.100563,VALID,23.9195,VALID,340,VALID,0.195703,
2008-04-20, 03:17:05,VALID,1000.45,VALID,0,VALID,97.047,VALID,0.100563,VALID,23.9177,VALID,351,VALID,0.916406,
2008-04-20, 03:18:05,VALID,1000.47,VALID,0,VALID,97.0394,VALID,0.100563,VALID,23.9584,VALID,351,VALID,0.526953,
2008-04-20, 03:19:05,VALID,1000.46,VALID,0,VALID,97.0241,VALID,0.100563,VALID,23.9584,VALID,351,VALID,0.441406,
2008-04-20, 03:20:05,VALID,1000.47,VALID,0,VALID,97.0165,VALID,0,VALID,23.8982,VALID,351,VALID,0.505859,
2008-04-20, 03:21:05,VALID,1000.45,VALID,0,VALID,97.0012,VALID,0.100563,VALID,23.8787,VALID,357,VALID,0.485547,
2008-04-20, 03:22:05,VALID,1000.44,VALID,0,VALID,96.9936,VALID,0.100563,VALID,23.8787,VALID,1,VALID,0.537109,
2008-04-20, 03:23:05,VALID,1000.48,VALID,0,VALID,97.0317,VALID,0,VALID,23.8805,VALID,355,VALID,0.522656,
2008-04-20, 03:24:05,VALID,1000.46,VALID,0,VALID,97.047,VALID,0,VALID,23.9,VALID,354,VALID,0.480859,
2008-04-20, 03:25:05,VALID,1000.46,VALID,0,VALID,97.0088,VALID,0.100563,VALID,23.8982,VALID,354,VALID,0.367969,
2008-04-20, 03:26:05,VALID,1000.44,VALID,0,VALID,97.0241,VALID,0,VALID,23.9195,VALID,355,VALID,0.523828,
2008-04-20, 03:27:05,VALID,1000.42,VALID,0,VALID,97.0165,VALID,0,VALID,23.9195,VALID,355,VALID,0.427344,
2008-04-20, 03:28:05,VALID,1000.46,VALID,0,VALID,97.0241,VALID,0.100563,VALID,23.8787,VALID,355,VALID,0.623047,
2008-04-20, 03:29:05,VALID,1000.43,VALID,0,VALID,97.0241,VALID,0.100563,VALID,23.8593,VALID,351,VALID,0.749219,
2008-04-20, 03:30:05,VALID,1000.43,VALID,0,VALID,97.0241,VALID,0.100563,VALID,23.9,VALID,355,VALID,0.673437,
2008-04-20, 03:31:05,VALID,1000.44,VALID,0,VALID,97.0622,VALID,0,VALID,23.9195,VALID,356,VALID,0.5875,
2008-04-20, 03:32:05,VALID,1000.43,VALID,0,VALID,97.047,VALID,0.100563,VALID,23.9195,VALID,357,VALID,0.853125,
2008-04-20, 03:33:05,VALID,1000.45,VALID,0,VALID,97.0165,VALID,0,VALID,23.8787,VALID,356,VALID,0.860937,
2008-04-20, 03:34:05,VALID,1000.41,VALID,0,VALID,97.0546,VALID,0.100563,VALID,23.9195,VALID,357,VALID,0.709766,
2008-04-20, 03:35:05,VALID,1000.45,VALID,0,VALID,97.0394,VALID,0.100563,VALID,23.9177,VALID,356,VALID,0.654297,
2008-04-20, 03:36:05,VALID,1000.44,VALID,0,VALID,97.0165,VALID,0,VALID,23.9177,VALID,357,VALID,0.659766,
2008-04-20, 03:37:05,VALID,1000.44,VALID,0,VALID,97.0165,VALID,0,VALID,23.9389,VALID,354,VALID,0.717969,
2008-04-20, 03:38:05,VALID,1000.46,VALID,0,VALID,97.0241,VALID,0.100563,VALID,23.9195,VALID,346,VALID,0.716016,
2008-04-20, 03:39:05,VALID,1000.43,VALID,0,VALID,97.0241,VALID,0.100563,VALID,23.9195,VALID,352,VALID,0.701172,
2008-04-20, 03:40:05,VALID,1000.43,VALID,0,VALID,97.0088,VALID,0,VALID,23.8982,VALID,357,VALID,0.826953,